SAUDISAT 1C (SO-50) 1 27607U 02058C 25348.28963521 .00002628 00000+0 33096-3 0 9996 2 27607 64.5543 340.8085 0072295 296.3156 63.0536 14.82399197237048 SAUDISAT 2 1 28371U 04025F 25348.24597943 .00000493 00000+0 12145-3 0 9998 2 28371 98.5421 338.5588 0025460 142.6837 217.6135 14.56524274138827 SAUDISAT 3 1 31118U 07012B 25348.28376559 .00000548 00000+0 96775-4 0 9995 2 31118 98.1229 293.8429 0016047 95.1815 265.1224 14.71256434 550 PISAT 1 41784U 16059B 25347.97982080 .00001630 00000+0 28729-3 0 9999 2 41784 97.8160 351.4856 0030691 77.8129 282.6512 14.68498924492558 FLYING LAPTOP 1 42831U 17042G 25348.33642962 .00004608 00000+0 37490-3 0 9992 2 42831 97.4236 146.8836 0014958 44.2388 316.0029 14.99926113458736 SALSAT 1 46495U 20068K 25347.97394729 .00010073 00000+0 39011-3 0 9992 2 46495 97.8786 335.3129 0008978 224.0796 135.9726 15.26353387287073